Theta_e
313 312 312 311 312 313 314 315 316 315 316 316 316 314 313 312 312 316 317 316 317 315 315 316 314 315 316 316 317 317 318 319 319 321 322 330 337 336 335 336 338 338 336 336 339 340 337 337 339 342 343 344 343 342 342 341 341 341 341 341 341 341 341 340 339 338 337 338 338 336 334 334 335 336 336 335 335 335 336 336 336 336 335 334 335 335
314 312 312 312 313 314 315 316 317 316 316 316 315 314 313 313 313 317 318 316 317 315 314 316 315 315 316 316 317 317 318 318 318 321 321 322 331 335 334 333 335 335 334 336 340 340 340 339 341 342 343 344 343 343 342 340 341 341 341 341 340 340 339 339 339 338 337 336 336 336 334 334 334 335 335 335 335 335 335 335 336 336 335 335 335 334
314 313 313 314 314 314 315 316 317 316 316 316 316 314 313 314 314 315 318 317 317 315 315 316 315 315 316 316 317 316 317 318 319 319 321 320 323 327 328 332 334 334 335 338 341 341 339 339 341 343 343 343 343 343 342 342 342 342 341 341 340 339 338 339 338 338 337 335 335 334 333 334 334 334 334 334 335 336 335 335 336 335 334 335 335 334
314 314 314 314 314 315 315 315 316 317 317 316 316 314 313 315 313 311 314 318 318 316 316 316 315 315 317 317 317 318 317 317 318 318 320 320 320 323 322 328 334 335 338 341 343 344 340 337 341 342 341 341 342 343 342 343 342 342 341 339 339 339 339 338 338 338 337 335 334 334 333 334 334 334 335 335 336 336 336 336 335 334 334 335 335 334
315 317 315 314 314 315 315 315 316 317 317 318 318 316 314 315 313 312 314 317 317 317 318 317 314 313 316 317 316 318 318 317 317 317 319 319 319 322 320 325 335 337 340 343 344 344 341 339 338 338 338 338 339 342 342 342 342 342 340 337 337 339 339 338 337 338 337 335 335 335 335 335 335 335 335 335 335 335 335 335 334 334 335 335 335 334
316 318 317 315 314 314 315 315 316 317 316 316 318 318 315 315 315 314 316 315 313 313 317 316 311 311 314 316 316 317 317 318 317 317 318 318 318 320 319 327 337 338 340 342 341 342 343 340 335 336 338 337 338 341 342 341 341 340 339 338 339 339 338 338 337 337 336 335 335 335 335 335 334 336 335 334 335 335 334 334 334 334 334 335 335 334
316 317 317 316 315 315 314 315 317 317 315 312 315 317 316 315 315 315 315 313 309 309 316 317 312 310 312 314 316 317 316 316 317 317 317 318 318 320 318 325 336 338 339 340 340 342 342 339 337 337 336 336 337 340 342 340 337 338 338 339 340 338 338 338 337 337 336 335 335 334 334 334 333 334 335 335 335 335 334 334 334 333 333 334 334 334
317 317 316 316 316 316 315 315 317 317 314 312 315 316 316 315 314 314 314 312 312 312 315 316 312 310 309 312 318 319 317 317 318 318 317 317 317 320 319 318 330 337 338 339 339 342 342 339 338 337 334 334 336 340 341 336 333 335 336 337 338 338 337 337 337 336 336 335 335 334 334 334 333 334 334 335 336 335 333 333 333 332 332 333 333 334
318 317 316 317 316 316 315 316 316 315 314 314 316 316 315 317 315 315 314 311 313 313 311 312 312 310 308 312 318 317 316 316 316 319 320 319 319 320 322 320 327 336 337 336 338 342 343 339 338 337 335 334 337 339 337 333 333 334 335 336 337 337 337 337 336 336 336 335 335 334 334 333 333 334 335 335 335 333 332 333 333 332 332 333 333 334
317 316 316 317 316 316 316 317 315 314 315 315 316 316 315 317 316 316 315 311 312 312 310 310 310 310 308 311 316 316 320 322 321 324 326 326 326 326 327 325 329 335 335 335 338 341 342 340 339 337 336 338 338 335 331 333 335 335 335 336 337 338 337 336 336 335 336 336 335 334 334 333 333 334 335 335 335 334 334 334 333 333 333 333 333 334
316 316 317 316 316 317 316 316 315 314 315 315 315 315 315 316 316 316 314 311 311 311 310 309 310 310 308 311 317 320 325 329 329 328 328 329 329 327 328 326 325 331 334 335 338 340 341 341 339 338 340 341 335 329 331 334 336 337 337 337 337 337 335 335 335 335 335 336 335 335 334 333 333 335 335 335 335 335 335 335 334 333 333 333 333 333
315 316 317 316 316 316 316 315 315 315 315 316 315 314 313 313 313 313 311 311 311 311 310 309 310 310 307 313 323 326 328 330 330 329 329 330 328 326 327 325 325 332 335 335 336 338 339 338 336 337 339 337 330 327 330 335 335 337 338 337 337 334 333 334 334 334 335 335 336 335 334 333 333 335 335 335 335 335 335 335 333 333 333 333 333 333
314 315 316 317 316 316 316 314 314 315 316 316 314 313 312 311 311 311 310 310 311 311 310 310 310 310 312 318 326 329 328 329 330 330 330 330 328 328 329 327 330 338 337 334 331 333 336 335 334 334 334 332 328 327 329 332 332 334 335 337 336 335 334 334 334 334 334 334 335 334 334 334 334 335 334 334 334 334 334 334 333 333 332 332 333 332
313 315 315 316 316 316 316 314 312 313 314 314 312 311 311 311 312 312 311 311 312 310 310 312 310 311 319 326 328 329 330 329 330 331 333 334 332 333 333 331 335 338 334 330 329 331 333 333 332 332 331 330 329 328 330 330 330 330 332 335 335 335 335 334 334 334 334 334 333 333 335 335 334 334 333 333 333 333 333 333 332 331 331 331 331 332
312 313 314 314 315 316 316 314 314 314 314 315 314 313 312 311 311 312 311 311 314 314 313 315 312 313 321 328 329 329 329 328 329 330 332 333 333 334 334 334 336 335 331 329 329 329 329 330 330 329 329 328 328 329 330 329 329 330 332 333 334 335 334 334 334 333 333 334 333 334 334 334 333 333 332 332 332 332 332 332 331 330 329 330 329 330
312 312 315 315 315 316 315 314 315 315 313 315 316 313 311 312 311 311 311 312 315 316 315 314 314 320 327 329 328 328 327 327 328 330 331 332 333 334 335 336 336 333 331 329 329 329 329 330 331 329 328 327 328 329 330 331 331 333 333 333 334 335 334 334 334 333 333 334 334 335 334 333 333 332 331 332 332 331 330 330 330 329 329 329 329 330
312 313 316 316 316 316 315 315 315 314 313 314 314 312 313 315 313 310 311 313 314 316 316 312 314 324 330 329 328 328 327 327 328 330 332 333 334 336 336 336 334 332 330 329 329 329 329 330 331 329 328 328 328 328 329 330 332 334 335 334 334 335 334 333 333 333 334 334 334 335 334 333 333 331 330 330 330 329 330 330 329 329 329 329 329 329
314 314 317 316 316 316 316 316 315 315 314 313 312 312 314 315 312 312 311 313 315 315 315 312 313 322 328 330 331 331 330 330 329 331 333 333 334 336 336 335 333 330 328 328 329 328 328 329 329 329 328 329 329 328 329 331 332 334 334 334 335 335 335 334 332 333 334 334 334 334 334 333 332 330 328 328 329 329 330 329 329 329 329 329 329 329
315 313 315 316 316 316 316 316 314 315 315 314 314 315 315 312 311 311 311 313 315 316 316 312 312 322 328 329 331 332 332 333 331 332 333 333 333 334 334 333 332 329 327 328 329 328 328 327 327 328 328 328 328 328 331 333 333 333 333 334 334 333 334 334 332 333 334 334 334 334 334 333 331 330 328 328 329 329 329 328 328 329 329 329 329 328
316 313 314 316 316 316 317 315 312 313 315 314 314 315 316 314 312 312 311 312 313 315 318 313 314 327 330 329 330 332 332 333 332 333 332 331 330 330 331 331 331 330 329 328 328 328 329 328 328 328 327 328 329 329 332 333 332 331 331 332 331 330 331 333 333 333 334 334 334 334 335 333 331 329 328 329 330 329 329 328 328 328 328 329 328 327
315 316 315 316 315 315 315 314 313 313 314 313 312 312 314 314 313 315 315 313 311 313 316 315 319 330 330 327 329 331 332 332 332 332 332 331 329 329 330 331 331 331 330 329 329 330 331 330 329 327 326 327 329 329 331 331 330 330 330 330 331 330 330 332 333 333 334 334 334 335 334 332 330 329 330 330 329 329 329 329 329 329 329 328 328 327
315 316 316 315 314 313 313 315 315 315 314 314 312 311 312 313 313 314 315 315 313 313 316 318 324 331 330 327 329 331 331 331 331 331 332 331 330 329 330 330 329 329 329 329 330 331 331 330 330 329 327 328 329 330 330 330 329 330 330 329 330 330 330 332 334 333 332 333 334 334 333 331 330 330 330 330 329 329 329 329 329 328 328 328 328 328
317 316 314 314 314 313 316 316 315 316 315 315 314 313 314 313 312 312 313 317 316 314 317 320 324 330 330 327 329 330 330 330 328 330 331 329 328 328 327 327 326 326 326 326 328 329 330 330 329 330 330 330 330 330 330 330 330 329 329 329 329 330 331 333 334 331 330 331 333 334 333 331 331 330 330 330 329 328 328 328 328 328 327 327 327 327
317 315 312 313 315 314 316 316 315 316 315 314 314 315 314 313 314 313 313 318 318 315 319 322 323 329 329 327 329 329 328 327 326 326 327 326 325 325 324 324 323 323 324 324 325 326 327 326 326 327 329 329 329 328 329 330 330 328 328 329 329 330 331 332 332 330 329 331 333 335 333 331 330 330 329 329 328 327 327 327 327 327 327 327 326 326
318 315 313 315 316 315 315 316 317 318 315 314 315 316 316 315 315 316 316 319 317 315 320 323 324 329 329 327 328 328 326 325 324 323 322 322 322 322 322 322 321 322 323 322 322 323 322 322 323 324 325 327 327 327 328 329 327 327 328 329 330 330 330 330 330 330 330 331 332 332 331 330 329 328 328 328 328 327 326 326 327 326 326 326 326 325
319 319 318 317 318 318 318 318 318 318 317 318 318 316 318 317 316 321 322 319 317 316 319 321 326 331 331 329 328 326 325 324 323 321 320 320 320 320 320 320 320 320 320 319 319 319 319 319 320 322 322 324 326 327 328 327 325 324 326 328 329 329 329 329 329 329 331 331 330 329 328 329 329 328 328 328 328 327 326 326 326 326 326 325 324 324
320 323 321 318 320 321 321 320 322 321 319 319 319 318 321 323 322 324 323 321 323 324 323 324 329 331 331 329 326 325 323 321 320 319 318 318 318 318 318 318 318 317 317 316 316 315 315 315 317 319 320 320 322 324 326 327 326 326 326 327 328 328 327 327 328 329 330 329 328 328 328 329 329 328 329 328 327 327 326 325 325 325 324 323 323 323
322 322 320 321 322 321 321 321 322 323 320 320 323 325 326 326 327 326 323 323 327 327 325 327 330 331 330 327 323 321 320 319 318 317 316 316 315 316 316 315 314 314 314 314 313 312 312 313 314 316 317 318 319 321 323 324 325 326 326 326 327 327 327 327 328 328 328 327 327 328 328 328 327 328 329 328 327 327 326 325 324 323 322 322 322 323
323 322 322 324 324 321 320 321 322 322 322 322 325 328 328 327 328 330 328 327 328 326 325 328 330 330 326 322 319 318 317 316 315 314 314 313 313 313 313 312 311 311 311 311 310 310 310 310 311 313 314 315 316 318 320 321 323 325 325 325 326 326 327 327 327 327 326 326 327 327 327 327 327 327 328 327 327 327 325 323 322 322 321 321 321 322
323 323 324 324 324 324 322 321 321 322 323 325 324 324 326 326 327 327 328 328 327 327 328 328 326 324 320 317 316 315 314 313 312 311 311 311 311 311 310 310 309 308 308 309 309 308 308 309 310 311 312 312 313 315 317 318 320 323 324 325 325 326 326 327 327 326 326 326 326 327 327 327 327 326 326 327 327 325 324 323 322 321 320 320 321 322
322 322 323 323 322 323 323 321 320 321 324 324 323 322 323 325 325 326 327 327 328 330 329 325 323 320 316 314 314 312 311 311 310 309 309 308 308 308 308 307 306 306 306 306 306 307 307 307 309 310 310 311 311 313 314 316 318 320 321 323 325 326 326 327 328 327 326 326 326 327 327 326 326 326 326 326 326 325 324 322 321 321 321 321 321 321
321 320 322 323 322 322 322 321 320 322 323 323 321 320 321 323 324 325 325 325 327 329 329 326 325 320 315 313 312 310 309 309 308 308 308 306 306 306 306 305 305 304 305 305 305 305 305 306 308 309 309 310 310 311 312 314 316 316 317 320 323 325 325 326 327 327 326 326 326 326 325 325 325 325 326 326 326 325 323 321 321 321 321 322 321 321
320 319 320 322 322 322 323 323 323 323 324 324 320 318 319 321 323 323 323 322 323 325 326 325 322 317 314 312 311 308 307 307 306 306 306 306 305 304 304 304 304 303 303 303 304 304 304 306 307 308 308 308 309 310 310 312 313 314 314 316 320 323 324 324 325 325 325 325 324 324 323 323 324 324 325 325 325 324 324 322 322 322 322 321 322 322
321 319 319 320 321 321 323 323 323 324 324 321 316 315 317 319 321 321 321 320 320 320 319 318 316 314 312 311 308 306 305 305 305 304 304 304 304 304 304 303 303 303 302 302 302 303 304 305 306 306 306 306 308 309 308 309 311 312 313 314 316 318 319 321 322 323 323 323 322 322 322 322 322 322 322 323 323 323 323 323 323 323 323 322 322 322
321 319 319 319 319 320 322 322 324 324 321 316 313 312 314 316 317 318 317 316 317 317 316 314 311 309 308 306 305 305 304 304 304 303 303 303 303 303 303 302 302 303 302 301 302 302 303 304 304 305 305 305 306 308 308 308 309 310 311 312 313 314 315 316 318 320 321 322 321 320 320 321 321 320 320 321 322 321 320 320 320 319 319 320 319 318
320 319 319 320 319 318 319 321 323 321 317 314 313 312 312 314 315 316 316 314 314 315 314 311 309 307 305 305 304 303 303 302 302 302 302 302 302 302 302 302 302 302 302 302 301 302 302 302 303 304 304 304 305 306 307 307 307 308 309 309 311 312 312 313 314 316 318 319 320 320 320 320 319 319 319 319 319 319 318 317 317 317 317 317 317 317
320 320 318 319 320 318 319 320 319 317 316 314 313 312 311 313 313 315 317 315 312 313 312 309 308 306 305 305 304 303 303 303 303 302 301 301 301 301 302 301 301 302 302 302 301 301 301 301 302 303 303 304 304 304 305 306 307 307 307 307 308 310 311 311 312 313 314 316 318 320 320 321 320 319 319 318 318 318 318 317 316 317 317 317 317 318
319 320 319 319 319 318 319 320 318 319 319 315 312 311 311 312 312 312 316 315 311 311 311 309 308 307 306 305 305 305 306 307 305 302 301 301 301 301 301 301 301 300 300 300 301 300 300 301 301 301 302 303 303 303 304 304 305 306 306 306 307 308 309 310 310 311 312 313 315 317 318 318 319 319 319 318 318 319 319 319 319 319 318 318 319 319
319 318 317 317 317 316 319 321 319 319 317 312 310 311 310 312 312 313 317 317 311 309 310 309 308 307 306 307 307 306 309 310 305 302 301 301 300 300 300 300 300 299 299 299 300 300 300 300 301 301 301 301 302 302 303 302 303 304 305 305 306 306 307 308 309 310 310 311 312 313 314 314 315 315 316 316 317 318 319 319 319 320 319 319 318 318
319 317 315 317 318 316 318 319 316 315 312 309 308 309 310 311 312 315 320 318 311 309 309 308 308 308 307 308 307 306 308 308 304 301 301 301 301 301 300 300 300 300 299 299 299 299 300 300 300 300 301 300 300 301 302 302 302 302 302 303 304 305 306 306 307 308 309 310 310 311 311 312 312 313 313 314 315 316 317 317 318 318 317 317 316 315
316 315 315 317 317 316 316 316 313 312 309 307 307 308 309 311 314 317 318 314 310 309 308 307 308 308 307 306 305 304 304 304 302 301 301 301 301 300 300 300 300 300 299 299 299 299 299 300 300 300 300 300 300 300 300 301 301 301 301 302 302 303 304 305 306 306 307 308 308 309 310 310 311 311 312 312 313 314 315 315 315 315 315 314 314 313
314 314 315 315 316 316 316 315 313 311 308 306 307 308 308 312 315 313 311 311 310 309 308 307 307 305 304 304 303 302 302 302 301 300 300 300 300 300 300 300 299 299 299 299 299 299 299 299 300 300 300 300 299 300 300 300 300 300 301 301 301 301 303 304 305 305 305 305 306 306 307 308 309 309 310 310 311 311 312 313 313 313 313 312 312 311
312 314 314 313 313 315 315 314 314 312 308 305 307 308 308 310 311 309 308 311 310 308 307 306 305 303 303 302 302 302 301 301 300 300 299 299 299 299 299 299 299 299 299 299 299 299 299 299 299 299 300 299 299 300 300 300 300 300 300 301 300 300 301 303 304 304 304 305 305 305 305 306 306 307 307 308 308 308 309 311 312 312 313 312 312 311
311 314 314 311 310 312 312 311 310 309 306 304 306 307 306 307 308 308 309 310 308 306 305 304 303 302 302 301 301 301 300 300 300 300 299 299 299 299 299 299 299 299 298 298 299 299 299 299 299 299 299 299 299 300 300 300 300 300 300 301 301 300 300 301 302 303 303 304 304 304 304 304 305 305 305 306 306 306 307 307 308 309 310 311 311 312
309 310 310 309 308 309 309 308 307 306 305 303 304 304 304 305 306 307 307 307 306 305 304 303 302 302 301 300 300 300 299 300 299 299 300 300 299 299 299 299 299 299 298 298 299 299 299 299 300 300 299 299 299 299 300 300 300 300 300 301 301 301 301 301 301 301 301 302 303 303 303 303 303 303 304 304 304 305 305 305 306 306 307 307 308 309
309 308 308 308 307 307 307 307 306 306 304 303 302 302 302 303 304 305 305 304 304 303 302 302 301 301 300 300 300 299 299 299 299 299 299 299 299 299 299 299 299 299 299 299 299 299 299 299 299 299 299 299 298 299 299 300 300 301 301 301 301 301 301 301 301 301 300 300 301 301 301 301 300 301 301 302 302 303 303 303 303 304 305 305 306 306
310 308 308 308 307 308 308 307 306 305 304 303 302 301 301 302 303 303 304 304 303 302 301 301 301 300 300 300 299 299 299 298 298 299 299 299 299 299 299 299 299 299 299 299 299 299 299 299 299 299 299 299 299 299 299 299 300 300 301 302 302 301 301 302 302 301 301 300 300 300 301 300 299 298 298 298 299 300 301 301 301 300 301 303 303 304
309 308 308 307 306 307 307 306 305 305 304 303 302 301 301 301 302 303 303 303 303 302 301 301 301 301 301 300 300 299 299 299 299 299 299 299 300 299 299 299 299 299 300 299 299 299 300 300 299 299 300 300 299 299 299 299 300 300 300 301 302 301 301 301 301 301 301 301 301 301 301 301 300 299 297 296 296 297 298 299 298 296 296 298 300 302
308 308 307 306 306 306 306 305 305 305 304 303 302 301 301 301 301 302 302 302 302 301 301 301 301 300 300 300 300 300 299 299 300 299 299 300 300 300 300 300 299 300 299 299 299 299 299 300 300 300 300 300 300 300 300 300 300 300 300 301 301 302 301 301 301 300 301 301 301 301 301 301 301 301 300 298 297 296 296 296 296 295 294 294 296 298
308 307 307 307 307 306 306 306 305 305 305 304 303 302 302 301 301 301 300 300 301 301 300 300 300 300 300 300 300 300 299 299 299 299 299 300 300 300 300 300 300 300 299 299 299 299 299 300 300 300 300 300 300 300 300 300 300 300 300 300 301 301 301 301 300 300 299 300 300 301 301 301 301 301 301 300 299 297 296 296 296 295 294 294 294 294
308 308 307 307 306 306 305 304 304 305 305 305 304 303 303 302 301 301 300 300 300 300 300 300 299 299 299 299 299 299 299 298 299 300 300 300 300 300 300 300 300 300 300 300 300 300 300 300 300 300 300 300 300 300 300 300 300 300 300 300 300 300 300 300 300 300 300 299 300 300 300 301 301 301 301 301 300 299 298 297 296 295 294 294 293 293
Wind_Speed
8 7 7 8 9 11 13 14 15 17 17 16 11 6 9 9 9 10 8 12 8 5 6 7 8 10 11 12 11 8 9 11 11 9 9 10 11 10 11 10 8 6 6 7 10 11 12 13 10 18 17 14 15 17 21 21 20 20 17 18 19 19 19 18 18 17 15 15 15 15 15 14 13 11 11 11 10 10 11 12 12 11 11 13 13 12
9 8 9 12 13 14 14 14 15 17 17 14 11 8 10 10 6 8 7 12 11 5 4 7 9 11 11 11 12 11 11 11 10 10 10 10 13 13 14 16 15 11 9 10 10 12 14 12 10 17 16 14 15 16 20 22 21 19 17 17 18 17 16 15 14 14 13 12 12 11 10 12 14 13 13 11 11 12 13 13 12 11 11 11 11 11
9 9 11 14 14 14 14 14 14 16 16 10 7 8 9 7 5 6 6 7 9 5 4 7 9 10 12 12 13 12 11 12 8 11 9 11 11 11 12 15 17 14 13 12 10 11 12 11 11 14 14 14 16 16 19 22 22 20 19 18 17 16 13 11 11 10 9 9 9 9 9 11 13 14 15 14 12 13 13 13 14 14 12 11 10 10
7 9 14 15 14 13 13 14 12 10 11 7 6 8 8 8 7 6 7 6 4 3 1 5 10 9 10 10 10 10 9 11 13 11 12 12 12 12 13 10 15 17 16 15 11 9 11 13 10 8 8 6 10 16 18 21 23 21 19 17 16 16 14 12 11 9 9 10 9 8 7 8 11 12 13 13 13 13 14 14 15 15 13 13 13 11
10 12 17 17 15 14 14 12 9 6 7 7 8 10 9 10 11 10 8 6 5 3 2 5 9 7 9 11 10 8 8 11 15 15 13 13 12 11 13 9 12 17 15 15 13 10 10 9 10 10 9 6 12 17 19 20 20 18 17 16 15 16 16 15 14 13 13 12 10 9 8 9 11 11 11 12 12 13 14 14 14 14 13 14 13 12
12 14 14 15 14 15 14 9 9 8 7 7 10 13 13 14 13 13 12 8 7 6 8 10 7 6 9 13 14 11 11 13 13 16 14 12 12 12 12 8 13 15 13 13 12 10 8 8 13 17 21 22 21 19 20 20 18 19 19 17 17 18 17 17 17 15 14 13 12 11 12 13 12 9 9 11 12 13 13 14 14 12 11 12 11 9
9 14 13 9 10 12 11 8 10 11 8 7 9 12 15 16 16 16 14 10 8 6 5 8 6 6 6 9 12 11 13 16 14 15 15 10 9 9 8 7 14 15 11 11 11 11 11 10 12 17 27 31 24 20 22 19 20 21 19 16 18 19 18 19 18 16 15 17 19 18 15 15 15 11 10 12 14 14 14 14 13 10 9 11 9 6
9 15 13 9 10 8 7 8 10 12 9 7 9 12 15 16 16 16 14 9 7 7 8 10 9 7 6 6 10 11 11 13 11 13 13 10 10 9 9 9 8 14 14 11 12 13 13 12 14 22 30 29 22 20 18 19 25 24 19 17 18 18 18 19 19 18 17 18 21 21 18 18 19 16 14 14 14 15 14 12 11 8 8 9 7 6
10 13 13 12 11 9 8 9 11 13 10 8 12 13 10 11 11 11 11 8 7 8 8 10 10 8 7 7 9 12 11 10 9 9 7 7 9 8 7 5 3 11 14 10 11 13 12 14 20 25 23 19 16 11 14 28 31 27 24 23 21 18 17 17 19 20 18 18 20 20 21 21 19 17 16 15 14 14 12 11 10 8 7 7 6 7
8 11 12 10 8 8 9 11 13 13 10 10 14 10 5 8 8 7 8 8 7 9 9 10 11 8 7 6 6 8 6 3 3 3 5 5 4 8 6 8 7 11 12 7 8 9 8 10 13 13 11 10 7 13 21 26 26 27 28 29 25 22 21 21 23 24 22 22 22 22 23 23 21 18 17 15 14 13 11 10 11 8 7 8 8 9
9 9 10 10 11 10 11 12 12 13 10 10 12 8 6 7 7 7 7 7 7 8 10 12 13 10 8 4 0 0 1 5 4 4 7 8 8 9 8 10 7 5 10 8 7 6 5 2 2 4 6 7 16 21 21 21 22 27 29 29 28 25 25 25 26 27 25 23 24 25 25 24 24 22 20 17 15 14 12 10 11 10 10 11 10 9
14 10 8 10 9 7 10 11 10 11 9 8 8 6 5 5 6 7 6 6 7 7 10 13 15 13 10 3 5 5 5 7 6 4 4 6 7 7 5 7 8 2 5 7 4 1 1 5 8 8 6 13 24 23 23 21 21 24 27 29 28 25 26 25 26 27 26 24 25 26 26 25 25 25 25 21 18 17 15 12 12 12 12 12 11 10
13 11 10 9 6 4 9 9 8 9 7 7 7 5 6 5 5 6 6 6 7 8 10 12 13 10 4 2 7 6 5 7 8 5 4 5 5 6 5 4 3 6 8 9 7 3 3 4 4 7 8 12 18 17 19 20 22 21 24 29 28 26 27 26 25 26 26 26 26 26 26 26 26 26 26 24 21 20 17 14 15 14 14 14 12 12
9 11 14 13 8 9 13 9 7 9 8 9 9 7 7 6 5 6 6 6 7 7 9 12 12 7 3 6 7 5 5 7 8 7 6 5 2 3 3 2 5 10 9 7 5 3 2 2 3 8 9 15 18 17 18 20 21 18 20 26 25 25 27 26 25 25 23 25 28 28 27 27 27 27 27 26 23 22 19 17 17 15 15 15 13 12
10 9 12 14 8 11 14 13 10 9 9 10 9 8 8 6 6 6 5 6 5 5 6 9 9 4 2 2 2 5 6 6 6 6 5 4 2 1 2 5 8 9 6 5 3 3 3 3 5 10 13 15 15 15 15 14 15 15 16 19 20 21 23 25 24 23 22 25 29 30 29 27 28 28 27 26 24 23 22 19 16 14 14 14 12 11
11 8 8 12 9 11 15 14 14 12 8 8 8 9 8 7 7 5 5 6 2 2 5 5 3 3 4 3 2 5 7 6 4 4 3 3 4 5 5 6 8 8 6 4 5 5 5 7 7 7 9 9 8 7 7 10 12 11 12 15 17 18 20 20 20 21 22 25 27 27 27 26 27 27 26 25 23 23 22 18 15 14 14 13 12 11
9 7 8 12 13 14 14 12 14 13 7 5 8 10 8 10 9 5 6 6 2 3 5 5 3 5 7 3 4 5 4 4 3 3 4 4 6 6 6 7 7 8 7 5 4 6 8 9 7 5 8 8 9 10 8 9 10 7 9 13 14 15 18 18 16 18 21 24 24 23 24 27 27 26 24 24 24 23 19 16 15 15 14 14 13 12
6 5 8 13 13 14 13 13 14 14 10 6 6 8 8 10 9 5 4 5 5 6 5 6 8 4 5 2 3 5 4 4 2 2 3 4 5 6 5 7 7 7 6 5 3 4 4 6 6 3 5 5 11 15 13 12 11 7 5 9 12 13 17 20 18 17 20 23 24 24 23 26 28 26 23 24 24 21 17 16 15 14 14 14 13 13
6 5 8 13 12 12 13 13 12 13 14 11 7 6 6 7 7 5 4 5 6 6 4 8 8 1 2 0 3 4 3 4 3 4 5 7 8 8 6 8 9 6 4 6 6 6 5 3 4 5 1 3 7 11 9 8 9 9 7 5 7 9 13 19 19 18 21 22 24 25 23 24 27 27 24 23 21 19 18 17 15 14 15 14 13 14
5 4 5 10 10 11 10 10 9 9 12 13 10 8 6 5 5 5 4 4 6 5 4 8 6 1 2 4 1 2 3 2 3 6 6 8 10 9 7 6 6 5 3 5 5 5 5 3 3 5 3 2 5 6 5 2 5 9 11 9 8 8 9 14 18 20 22 23 24 25 22 23 26 26 24 22 20 20 20 17 16 15 15 14 13 13
6 3 4 7 9 10 8 7 8 8 9 10 9 9 7 5 4 4 3 3 6 6 4 6 3 2 0 3 3 2 3 3 5 6 5 7 7 5 5 5 6 7 6 6 5 3 4 5 6 7 5 3 3 2 3 1 1 3 7 8 11 14 15 16 19 22 23 24 24 23 23 24 25 23 21 21 22 22 19 18 17 15 15 15 14 13
5 5 5 6 7 8 8 9 12 13 11 9 9 9 9 7 6 6 4 3 5 5 4 4 1 2 2 3 2 2 4 5 6 7 6 8 9 6 6 8 10 11 10 9 7 5 6 7 8 9 7 4 3 3 4 3 2 2 1 2 8 16 21 22 21 21 21 22 23 23 24 24 22 21 20 21 23 21 19 19 18 16 15 15 14 13
5 4 6 7 7 9 10 9 12 14 15 12 10 9 10 9 7 7 5 3 3 5 4 1 2 3 2 3 3 4 7 8 8 8 7 9 9 9 10 10 11 12 12 12 10 8 9 11 11 11 10 9 9 7 5 6 5 4 4 3 7 12 18 22 23 22 20 19 21 23 23 22 21 21 21 22 22 19 19 21 19 16 15 14 14 13
4 4 6 6 6 10 11 8 8 12 14 12 10 9 10 10 9 9 6 2 4 4 2 1 1 2 3 3 3 4 8 9 8 9 9 9 8 9 10 10 11 11 11 11 11 10 12 15 15 14 12 11 11 11 10 10 9 9 9 5 7 11 13 15 18 20 18 17 21 23 23 22 20 22 22 22 21 20 20 20 18 16 14 13 13 11
4 2 5 6 6 7 9 7 6 9 9 6 6 9 11 12 13 10 3 3 3 5 5 2 2 1 4 3 2 4 8 9 9 9 9 9 8 8 9 9 9 9 9 11 12 12 14 15 15 16 16 14 12 11 12 12 10 10 11 9 7 8 11 10 9 15 17 17 20 22 22 21 20 21 22 21 21 21 20 19 17 16 14 13 13 10
4 1 2 6 7 5 5 4 4 5 4 3 6 9 11 13 12 5 3 1 3 3 4 2 1 4 6 7 4 3 7 9 9 9 9 8 8 8 8 8 8 9 10 11 12 12 13 13 14 16 17 18 17 15 13 11 8 8 11 12 10 6 7 6 4 11 14 17 19 18 18 20 20 21 21 21 21 22 21 19 17 16 14 13 13 11
3 1 3 6 5 2 1 3 8 8 3 4 9 9 8 11 12 5 3 1 2 2 3 2 4 8 7 8 8 6 8 8 8 9 9 9 8 8 8 8 9 9 9 10 12 12 13 13 14 17 18 18 20 19 16 13 9 8 10 13 13 7 6 5 3 9 14 21 22 19 19 20 20 20 20 21 21 21 20 17 16 15 14 13 13 11
1 3 4 6 6 4 1 3 8 10 6 5 9 11 12 15 15 8 2 2 2 3 3 2 6 11 8 7 8 7 7 7 8 8 8 8 8 8 8 9 10 11 11 12 12 13 13 13 13 15 18 19 19 20 19 17 15 13 11 12 11 4 1 0 6 13 20 25 24 21 20 22 22 21 20 21 21 20 19 17 16 16 14 13 13 12
1 2 3 4 6 6 4 4 6 8 7 6 10 12 12 13 14 11 8 6 3 4 4 6 7 10 9 7 7 7 7 8 8 8 7 7 8 8 9 10 12 12 13 13 14 13 13 13 13 15 18 19 19 19 19 18 18 17 14 14 13 10 10 14 18 20 20 23 25 23 21 21 21 21 22 22 20 19 19 18 17 16 15 15 14 11
2 1 2 2 3 4 4 2 2 2 2 5 10 13 12 11 11 9 8 8 8 7 7 10 11 10 7 6 7 7 7 8 8 8 9 9 9 9 10 11 12 13 14 14 14 13 13 13 14 17 18 19 19 18 18 18 18 19 18 15 14 15 18 21 23 22 19 20 23 21 20 21 22 21 22 22 20 18 17 17 17 17 16 15 13 11
4 1 1 1 2 4 3 5 7 3 4 5 10 14 13 7 5 6 8 7 7 8 9 11 11 7 5 6 7 7 7 8 9 9 9 10 10 11 11 12 12 12 13 13 13 13 13 14 16 18 19 19 19 18 17 17 18 20 20 16 14 15 19 21 22 23 22 21 20 18 20 22 23 22 22 22 20 18 16 16 17 17 16 15 14 12
3 2 1 0 2 4 2 6 8 2 6 5 10 14 12 5 2 5 8 7 5 5 8 6 4 4 5 6 7 9 9 10 11 10 9 9 10 11 11 11 12 12 12 13 13 13 13 14 15 17 18 19 19 19 18 17 19 21 20 18 17 15 17 21 22 22 22 20 18 17 20 23 24 22 21 21 20 18 17 18 17 16 16 16 14 13
2 3 3 2 2 3 2 5 6 1 5 2 6 9 10 8 6 7 8 9 9 3 4 3 3 5 7 7 7 9 9 10 10 9 9 9 9 11 11 11 11 12 12 12 12 12 13 14 15 17 18 18 19 21 20 19 21 23 19 18 20 19 17 18 19 20 20 19 17 18 20 23 25 23 21 22 21 19 20 20 20 20 18 16 14 14
2 3 3 3 3 3 2 4 5 2 4 1 3 6 9 9 8 10 10 11 11 8 6 7 8 8 8 8 8 9 9 10 10 9 10 9 8 9 10 11 11 11 11 12 12 12 13 14 16 17 19 19 20 21 23 23 23 24 23 21 23 23 22 20 19 19 19 18 18 19 19 22 24 23 21 22 22 22 22 23 23 22 20 17 15 15
3 3 2 2 2 1 3 3 1 2 2 2 4 7 9 7 8 11 12 12 11 9 10 10 10 9 9 10 9 10 11 12 11 11 12 11 9 9 9 11 11 11 11 12 11 12 15 16 16 18 19 21 22 23 24 25 25 25 26 26 26 26 25 23 23 22 20 18 18 20 21 21 23 23 21 21 22 22 22 22 23 22 19 17 16 15
4 3 2 2 2 1 2 3 2 2 3 4 7 9 8 6 6 7 8 10 11 8 9 10 8 9 10 10 9 9 11 11 11 12 12 11 10 10 9 9 10 10 11 11 11 13 17 18 17 17 19 21 25 27 25 24 25 26 25 25 28 28 27 26 26 24 23 21 19 18 20 20 21 20 19 19 20 20 18 18 18 17 16 15 14 12
3 3 3 2 2 2 3 2 4 5 4 5 6 6 6 4 4 4 3 6 9 7 8 8 8 8 9 9 8 8 9 9 9 9 10 11 10 10 11 11 11 11 12 13 14 16 19 21 20 19 19 21 26 30 29 25 25 27 27 25 25 26 27 28 27 24 24 25 22 20 20 21 21 21 20 19 18 18 16 14 14 13 11 11 11 10
2 1 2 3 1 1 1 4 4 5 3 4 5 5 5 3 3 4 0 3 6 7 7 7 8 8 7 7 7 7 5 4 6 6 7 9 10 10 12 13 14 14 14 15 16 17 20 23 22 21 21 22 25 28 28 27 25 25 26 26 24 24 26 26 25 24 26 26 24 23 22 22 23 22 21 21 19 18 17 14 14 13 12 11 12 12
5 4 3 3 3 1 1 2 2 2 3 4 7 7 7 5 4 4 1 3 5 5 5 6 7 7 6 6 5 2 2 1 4 4 5 8 9 10 11 12 14 15 15 16 16 16 18 21 23 24 24 26 27 27 25 26 26 25 25 24 23 24 26 25 22 22 24 25 25 24 23 23 23 22 21 21 20 18 18 17 17 16 16 16 15 13
2 3 3 2 3 2 1 1 2 3 3 6 10 9 8 6 4 3 2 2 4 4 5 5 6 7 5 4 4 4 4 3 5 4 5 7 9 11 11 12 14 15 16 17 17 17 18 21 24 25 24 25 27 28 25 24 26 27 26 24 22 22 24 24 22 20 20 21 22 22 22 22 23 22 22 21 20 18 18 18 18 18 17 16 15 15
2 1 2 3 3 4 4 4 3 3 3 8 11 10 8 6 2 0 1 1 2 3 5 6 6 8 7 6 6 5 6 7 8 7 7 8 9 10 12 13 13 14 14 17 19 18 18 20 22 23 24 25 26 27 27 25 24 26 26 24 23 22 21 20 20 20 20 21 21 22 22 22 22 21 20 20 19 18 17 16 16 16 14 14 14 15
3 3 3 4 3 2 3 4 4 3 3 10 13 9 7 4 1 2 3 2 1 5 7 8 9 9 9 9 8 7 8 10 10 9 9 9 8 9 11 13 13 13 14 15 19 20 19 20 23 23 25 27 28 27 27 26 24 23 24 24 24 23 21 19 18 18 19 21 22 23 23 23 22 20 19 18 17 17 15 14 15 15 14 13 13 14
3 2 3 4 3 2 3 4 3 2 5 12 12 6 6 5 1 2 4 2 5 8 8 9 9 9 10 10 10 10 10 10 10 9 9 9 9 10 12 13 13 13 14 14 16 18 19 21 24 24 24 25 26 27 27 26 23 23 23 24 23 22 21 20 18 18 19 21 22 22 22 22 21 20 19 18 17 17 15 13 13 13 12 11 11 10
5 3 3 2 3 2 3 4 3 2 5 10 8 4 5 6 4 2 2 5 8 8 8 8 8 9 10 11 11 11 11 10 9 8 7 8 9 11 12 13 13 13 13 14 14 15 16 17 19 20 22 23 23 24 26 25 23 23 23 22 22 22 23 21 20 19 20 20 20 20 20 20 20 19 19 18 17 17 16 14 12 10 9 7 7 8
5 6 7 5 5 5 5 3 3 3 4 7 7 6 7 8 7 6 8 9 7 7 7 8 9 10 11 11 11 10 10 9 9 8 8 8 9 11 12 12 13 12 12 13 14 14 15 14 15 16 19 21 22 22 22 23 23 23 22 21 20 20 21 22 22 21 21 20 19 18 18 18 19 19 18 18 17 17 16 15 13 12 11 9 7 6
7 9 8 6 7 9 8 6 6 6 7 8 8 8 9 9 8 8 10 9 8 8 9 9 9 11 10 10 11 10 9 9 9 9 8 8 8 10 11 11 12 12 12 11 12 13 13 14 15 16 16 18 19 21 20 20 21 21 18 18 18 18 17 18 20 21 20 20 19 18 17 17 18 18 17 16 16 16 17 15 13 13 12 12 12 11
7 9 8 6 6 6 7 8 8 9 8 8 9 9 11 11 9 8 8 8 8 8 10 10 11 11 11 11 10 10 9 9 9 8 8 7 8 9 10 10 10 11 11 10 10 11 11 12 13 14 14 14 16 18 19 18 18 17 16 14 15 16 15 15 15 15 15 16 16 17 18 18 18 19 19 17 15 15 17 16 13 11 11 12 13 13
7 9 9 10 9 8 9 11 12 12 11 10 8 8 9 10 10 8 8 8 8 8 9 11 10 9 10 10 10 9 9 8 7 8 7 7 8 8 9 9 9 9 9 9 9 8 8 9 10 11 11 11 12 13 14 15 15 14 14 13 11 11 12 13 12 11 11 11 12 13 15 14 14 17 20 20 18 17 17 16 14 12 12 11 10 11
8 8 8 10 11 10 11 12 12 12 13 12 10 9 9 10 10 10 9 9 10 10 11 12 13 11 9 9 8 8 8 7 7 8 7 7 9 9 8 7 8 8 8 9 8 8 7 6 6 6 7 7 8 9 10 12 12 12 11 11 10 8 8 9 10 10 10 10 10 11 12 12 11 12 14 18 20 21 20 17 15 13 12 11 9 8
8 8 8 8 8 7 7 9 9 9 9 9 10 11 11 11 11 11 11 10 10 10 10 11 13 14 14 13 11 9 8 7 8 8 8 8 8 8 8 7 7 6 7 7 7 7 7 7 6 6 6 6 6 6 8 9 10 11 11 11 11 10 9 8 9 10 10 10 10 10 10 10 10 10 10 12 16 20 21 20 18 16 13 11 9 8
7 8 7 8 8 9 10 11 10 10 9 9 11 13 12 11 11 11 12 11 10 11 11 10 10 10 11 12 13 12 10 9 10 9 8 7 7 7 7 7 6 5 6 7 6 6 6 6 5 6 6 6 6 6 6 7 9 10 11 11 11 12 12 10 8 8 9 10 10 10 10 9 9 10 10 9 11 14 17 20 20 19 17 14 13 11
Wind_Direction
198 207 211 216 222 221 220 225 237 244 248 264 287 288 262 251 233 229 175 143 159 188 206 240 248 251 262 267 267 251 230 211 196 218 228 181 156 164 167 156 160 201 242 221 220 229 216 222 194 147 154 167 164 164 162 164 166 165 168 164 165 172 176 180 175 169 165 156 150 155 161 156 156 162 155 153 161 181 202 197 188 181 187 205 199 183
201 217 219 217 223 226 225 224 236 253 259 272 299 300 273 267 243 229 191 146 147 167 228 259 261 255 255 260 268 266 263 254 201 190 238 219 179 177 177 168 165 178 211 213 208 215 215 217 176 144 151 165 170 171 165 165 166 167 172 164 162 167 171 178 172 164 164 160 154 148 140 139 142 149 156 166 176 190 208 204 194 186 186 208 214 197
204 224 227 224 225 227 233 231 227 246 259 266 275 270 268 278 281 259 236 143 138 164 217 258 264 257 253 247 250 250 250 266 239 188 214 239 216 208 203 180 165 171 185 190 196 205 207 206 180 153 154 165 173 177 173 169 166 168 171 163 159 160 161 169 164 156 156 146 138 134 134 143 146 152 161 168 181 194 205 204 201 197 188 195 205 203
205 218 225 226 230 230 231 235 233 242 252 250 250 252 253 259 267 256 224 176 177 214 187 282 279 266 264 258 249 249 239 255 261 223 203 230 233 221 234 211 162 166 175 174 181 191 197 195 177 141 135 161 185 184 181 174 167 164 164 158 152 152 152 159 158 147 141 124 114 125 147 158 151 152 159 164 180 197 203 203 203 200 191 189 191 194
227 222 217 213 218 230 229 225 227 247 256 239 238 248 252 251 256 262 248 217 221 231 159 258 277 265 259 263 257 258 250 242 256 252 215 217 235 216 230 231 155 161 170 167 173 179 184 169 137 133 139 179 218 203 188 180 167 153 150 148 147 154 155 155 153 143 139 132 118 115 119 129 141 150 160 165 176 197 204 202 203 198 194 191 182 188
233 242 231 207 206 221 224 218 209 222 250 243 229 235 252 260 258 263 269 263 243 214 187 208 242 256 238 242 244 237 240 235 238 255 240 216 231 225 219 198 148 161 171 163 169 164 150 131 138 164 176 189 211 212 194 179 153 131 132 145 159 170 168 158 154 153 155 153 147 148 144 139 145 157 167 166 172 196 205 201 202 198 194 190 176 188
227 251 254 221 222 218 207 218 215 213 234 247 234 224 232 251 263 270 276 275 261 250 242 241 257 275 243 241 253 238 231 232 218 231 241 224 228 234 233 198 156 162 168 157 166 157 147 151 155 179 194 196 199 202 196 173 144 136 138 156 176 181 174 158 155 165 172 168 164 172 172 157 156 174 190 177 173 190 198 196 202 203 192 182 170 185
212 239 242 212 237 236 198 224 220 212 227 239 245 235 223 228 236 251 262 267 274 280 280 271 266 273 269 264 275 271 252 248 232 219 222 219 231 233 231 235 177 161 166 161 171 167 159 163 172 192 205 202 195 200 192 144 133 145 151 167 184 186 177 160 159 173 177 173 171 174 176 169 166 177 190 186 179 187 191 189 197 198 178 166 162 182
200 232 233 196 219 238 216 233 226 216 228 237 245 247 249 252 242 242 254 256 259 264 262 259 254 254 257 250 257 266 262 259 259 248 226 212 241 246 227 271 40 138 166 171 174 178 168 170 187 195 199 200 198 186 128 114 124 142 155 170 181 183 183 174 172 182 182 181 181 178 177 177 172 173 179 183 183 185 182 180 185 181 164 159 170 187
199 220 237 208 210 239 229 231 232 222 219 236 248 248 256 276 277 266 260 257 249 249 251 249 252 258 259 249 246 255 265 278 267 305 21 41 340 336 343 344 30 118 152 170 182 197 188 179 187 180 173 181 150 95 103 120 137 151 157 167 176 179 183 182 183 188 185 183 186 186 184 178 169 167 175 179 180 179 176 177 178 174 169 169 175 181
232 205 229 231 214 221 235 234 233 231 221 229 246 250 230 230 252 261 255 262 258 248 249 247 248 255 262 266 17 223 63 55 55 52 39 36 17 356 348 331 333 128 148 162 181 213 209 170 93 120 160 130 95 103 130 147 159 161 159 166 175 180 179 178 183 187 186 185 186 189 193 187 173 168 174 176 175 176 177 179 176 171 169 167 167 170
246 218 208 240 229 208 238 238 226 229 222 224 238 247 244 217 217 237 234 234 245 249 254 252 245 243 252 256 89 95 97 83 71 57 34 27 9 341 326 311 314 5 113 119 114 289 342 23 26 27 28 79 95 117 138 151 174 171 162 167 172 176 178 177 179 182 185 187 184 186 192 192 181 173 174 175 173 175 176 173 170 169 165 161 160 162
234 233 213 231 246 224 243 240 218 217 205 217 231 217 234 239 215 223 226 220 233 245 249 256 256 246 247 68 83 79 68 72 74 70 52 47 14 321 297 275 329 38 51 64 61 13 14 28 37 29 29 86 107 122 136 161 193 183 166 172 173 174 180 180 177 176 180 184 184 184 185 186 182 175 174 174 172 172 171 168 170 173 169 161 156 160
215 230 222 217 202 201 230 237 214 211 196 206 223 208 213 232 228 222 224 229 241 249 246 254 259 242 133 81 76 73 65 63 67 70 64 78 98 296 307 332 48 56 40 35 40 357 334 327 55 74 102 131 141 163 174 189 205 193 174 175 174 176 180 181 178 173 173 178 182 183 181 181 181 178 175 174 172 169 166 167 174 174 166 158 154 159
217 221 223 226 199 177 211 233 234 227 210 202 214 227 222 225 242 237 227 236 248 280 284 265 258 244 148 147 108 71 62 59 62 66 64 79 101 15 20 26 49 65 46 13 357 333 312 314 36 86 120 143 159 180 189 201 208 197 179 172 172 177 180 181 179 172 169 172 176 180 180 180 180 179 175 174 173 169 164 168 174 169 159 152 152 155
230 228 219 232 222 188 199 223 240 243 227 202 206 228 231 228 243 253 253 256 252 313 303 279 268 77 101 146 98 58 49 47 50 60 62 54 45 42 48 50 60 71 63 24 341 330 337 0 38 104 147 170 205 218 196 204 213 199 177 172 175 177 180 184 179 173 171 170 174 179 179 181 180 176 172 171 170 166 162 167 169 162 155 152 154 154
230 238 225 222 218 213 207 207 228 243 237 209 212 224 230 233 240 244 251 255 225 244 260 250 236 117 120 114 67 75 76 66 45 44 55 52 55 55 51 56 61 63 68 61 9 349 344 4 49 160 208 211 227 248 243 224 225 211 173 172 182 181 182 188 185 178 174 171 175 177 178 182 181 174 171 170 167 165 163 163 163 159 154 151 154 153
219 248 244 228 215 220 225 210 216 235 239 232 226 223 221 227 238 248 247 240 227 237 247 238 234 173 138 146 110 123 115 102 104 75 64 55 65 66 57 65 68 61 64 75 70 51 17 15 61 137 237 228 208 219 220 206 204 208 181 176 192 189 180 185 192 187 177 173 175 176 179 184 180 174 174 170 165 163 161 160 159 155 151 149 152 154
218 238 242 236 219 212 226 220 212 223 230 238 245 237 231 225 225 226 232 242 240 240 248 241 238 175 51 2 143 143 117 100 89 64 47 31 34 32 28 52 67 64 39 38 41 44 55 62 71 90 86 265 222 220 221 194 175 178 186 196 212 203 182 182 190 190 182 177 177 178 180 184 179 173 170 167 163 159 157 158 157 150 148 150 153 155
223 239 247 242 221 204 218 223 218 213 216 231 243 238 244 247 234 228 217 228 243 243 248 247 236 83 345 317 15 114 112 100 75 68 51 36 33 18 3 18 55 80 78 61 49 20 32 86 110 108 116 274 257 263 286 242 171 180 189 195 200 203 192 184 187 191 187 180 179 180 179 178 175 168 162 162 161 155 153 154 153 148 149 151 152 156
198 189 253 257 226 211 216 214 224 227 207 212 229 228 230 235 244 254 227 220 247 248 248 256 245 120 209 306 338 63 82 71 77 82 73 64 62 35 4 6 31 52 60 79 100 84 59 78 98 114 142 211 217 278 327 310 241 221 198 193 188 183 185 189 191 193 191 184 180 177 172 169 167 163 160 159 154 150 151 151 150 148 149 150 155 160
194 170 210 249 232 222 226 209 216 237 230 211 213 222 227 226 229 238 227 215 250 260 265 263 253 92 61 351 351 65 69 60 68 78 77 71 70 60 43 34 30 32 31 37 52 67 71 71 86 109 130 142 102 54 36 50 19 329 264 228 206 189 184 187 192 198 199 190 179 170 165 162 161 161 159 153 149 148 148 148 148 149 149 150 158 166
222 197 205 232 237 237 245 225 215 234 242 233 223 219 225 230 230 238 237 197 214 263 299 319 137 119 71 25 31 60 64 58 55 62 66 60 53 47 43 37 33 30 25 22 24 33 48 50 54 68 80 78 63 48 46 66 62 13 339 285 244 226 204 192 189 197 206 196 175 163 159 157 155 156 154 149 149 149 142 142 145 147 150 153 159 169
255 222 213 230 244 241 248 254 251 249 245 238 229 222 228 230 224 235 243 167 184 238 292 357 214 138 105 58 39 58 66 60 49 46 47 45 40 36 37 36 34 31 25 20 20 25 34 36 35 36 41 48 44 31 31 53 59 18 344 305 269 264 242 214 192 190 198 190 171 159 154 153 151 150 150 149 149 146 140 141 146 149 152 154 159 167
303 240 221 230 233 232 232 238 265 265 250 247 243 233 238 239 231 232 226 130 194 202 160 168 260 116 107 98 44 52 67 62 50 46 44 41 36 31 34 37 35 32 27 22 20 24 30 30 28 26 22 21 23 20 26 42 42 6 347 336 308 268 250 245 205 185 185 175 165 159 151 148 149 149 149 148 146 144 146 147 149 153 155 154 155 158
289 308 255 240 228 228 233 238 284 288 264 300 289 253 251 261 253 228 117 120 247 189 159 201 170 118 118 125 128 86 72 64 49 46 44 38 34 31 33 34 32 33 29 25 21 22 28 26 23 23 19 16 16 13 21 36 23 342 341 343 334 287 256 268 211 184 176 157 152 153 147 143 145 147 148 148 145 147 152 151 149 150 151 151 153 150
307 310 268 266 258 237 218 293 314 318 313 317 305 295 316 321 300 262 148 194 276 82 30 333 129 130 131 123 114 85 70 64 46 38 36 31 28 27 32 33 32 34 32 31 29 24 25 24 19 20 19 17 18 15 18 28 18 353 351 349 345 327 294 298 200 164 147 140 145 150 149 147 144 144 148 149 147 148 152 153 151 147 145 147 146 147
321 264 269 293 299 299 349 324 312 315 316 322 331 345 10 7 344 330 39 89 128 103 18 307 147 134 130 116 99 84 75 67 52 40 32 30 25 21 27 30 30 32 32 32 32 27 25 23 18 17 18 18 18 17 20 24 21 19 19 13 11 9 286 249 141 136 128 133 147 154 150 147 147 147 149 151 149 147 148 151 152 149 148 146 142 146
269 266 318 339 331 317 332 352 333 329 330 355 16 12 15 19 10 6 24 37 72 123 168 196 158 125 121 111 94 89 83 73 60 45 36 35 31 25 26 29 28 28 27 27 28 26 24 22 18 18 20 19 17 17 19 20 22 29 38 42 49 81 121 124 126 128 124 128 140 149 149 148 150 152 151 151 150 146 145 149 151 147 143 142 143 147
246 92 9 354 338 297 302 332 309 310 344 28 38 31 26 24 14 18 32 30 44 83 131 141 118 98 95 96 90 86 82 78 67 48 39 33 28 27 26 29 29 24 23 23 22 22 22 20 19 19 21 22 19 18 19 15 19 31 43 53 65 87 109 119 123 126 129 130 132 138 145 145 146 148 147 146 144 142 143 144 142 139 137 139 143 141
246 129 44 344 287 269 260 250 247 208 110 73 50 41 40 31 353 17 37 25 38 77 100 107 103 95 89 91 88 77 71 71 63 52 45 32 25 27 26 28 29 24 22 21 20 20 19 19 21 21 23 24 20 20 20 15 17 27 36 48 65 85 99 110 116 119 125 133 134 133 136 136 137 139 141 143 142 138 137 134 131 132 133 133 133 128
235 189 136 52 276 273 264 255 256 173 97 73 47 36 29 32 48 57 44 10 12 110 132 122 106 117 119 105 86 70 61 59 54 48 45 36 29 29 29 29 28 25 22 21 21 21 18 19 22 21 22 23 20 19 17 18 26 30 32 43 60 77 91 99 108 112 116 126 132 128 124 125 127 129 131 136 137 133 133 132 128 124 122 120 119 112
205 198 192 160 226 277 0 328 298 187 140 97 37 27 13 22 70 88 64 29 22 63 154 134 99 120 127 115 88 71 60 55 51 43 39 39 36 34 34 32 30 28 25 23 22 20 17 18 21 20 19 19 18 20 21 27 36 37 35 49 66 75 81 88 99 107 109 115 123 126 121 118 119 119 119 124 125 122 124 123 117 114 116 118 117 108
199 224 219 176 217 244 94 42 336 265 192 222 17 20 9 20 63 83 67 43 43 61 78 84 95 104 104 94 84 78 70 64 60 51 43 40 39 40 39 37 34 31 28 26 23 16 11 12 19 22 19 15 18 26 31 37 44 48 47 55 68 73 74 78 86 95 100 104 110 118 120 117 116 115 112 115 116 111 108 109 109 112 116 120 120 114
200 216 213 187 228 252 131 136 264 273 175 130 56 25 4 10 56 74 64 40 40 72 87 87 89 89 89 94 94 89 83 75 68 61 51 44 41 43 44 42 38 34 30 27 22 15 9 5 13 25 23 18 24 34 36 37 44 51 50 53 61 65 66 70 74 80 89 95 101 109 113 113 112 112 111 116 118 111 102 102 107 110 112 115 114 113
206 196 175 189 205 190 194 209 207 150 111 92 61 30 4 357 30 61 70 39 20 46 87 94 97 99 104 109 106 101 95 84 71 61 53 50 48 45 45 43 37 34 32 28 24 19 12 6 9 22 30 29 33 37 35 34 42 49 49 50 56 59 60 63 66 71 81 88 95 103 108 109 109 109 110 113 115 114 106 103 106 106 106 108 107 106
210 197 165 175 220 222 206 108 107 139 114 58 41 26 11 2 355 357 75 55 20 33 82 103 113 113 116 121 123 131 124 94 69 52 42 46 53 51 49 45 37 34 29 25 26 23 21 21 20 21 29 35 38 37 36 36 44 51 50 47 50 55 58 60 61 65 73 81 87 94 101 106 106 106 109 111 111 112 111 110 110 106 102 102 106 111
117 154 169 177 189 309 185 129 131 167 139 49 24 15 9 347 311 311 333 84 31 32 76 109 119 117 127 137 144 167 170 83 57 48 38 42 49 49 47 41 34 33 28 22 24 24 24 28 28 26 28 34 36 35 36 39 46 50 48 45 44 49 55 57 58 62 68 74 81 86 91 97 99 100 105 110 112 114 115 119 120 119 118 119 118 117
95 101 99 136 130 57 234 178 135 135 110 27 358 351 345 329 309 298 224 104 36 30 72 102 117 122 131 137 135 178 246 49 75 69 49 47 46 43 44 40 32 31 28 24 25 25 25 28 32 33 33 34 34 33 33 39 45 47 43 41 41 45 49 51 54 60 66 70 75 80 84 87 91 95 98 101 106 112 117 120 121 122 124 123 121 118
117 139 114 108 119 87 71 138 75 83 72 2 340 329 326 320 302 273 207 89 36 45 85 96 112 115 105 96 83 35 8 75 117 106 72 64 55 47 48 44 36 32 28 25 27 31 32 35 36 37 35 34 35 36 35 36 41 43 39 36 37 40 44 48 51 55 62 67 70 75 81 84 86 90 95 97 101 107 113 117 120 122 121 118 113 112
72 54 101 91 80 78 99 107 89 90 41 349 330 321 322 313 279 346 38 24 20 69 106 107 100 90 70 61 70 57 51 82 107 107 83 70 60 49 47 45 42 39 33 29 31 34 35 37 38 39 39 39 39 39 39 36 36 37 37 34 30 29 34 45 52 55 60 65 67 69 73 77 80 84 87 88 90 92 97 103 106 106 107 110 110 109
30 2 60 76 54 59 112 116 115 118 36 347 329 324 340 339 145 44 344 292 100 89 98 94 85 83 79 77 84 89 88 90 95 92 79 71 65 55 48 44 41 39 36 35 38 40 40 41 41 41 42 43 43 43 43 39 34 34 35 32 26 22 27 39 49 54 58 62 64 65 66 68 71 74 75 77 78 79 84 94 96 91 91 98 104 107
358 356 73 59 21 36 83 82 92 106 19 354 339 340 15 17 353 294 311 358 81 82 84 81 80 89 95 94 95 95 94 88 82 79 74 69 64 56 48 46 44 39 36 37 42 45 46 46 45 43 42 43 44 44 44 42 37 34 34 31 26 26 31 36 41 49 55 58 59 61 61 62 64 66 67 69 72 72 75 85 92 92 95 105 114 119
346 352 86 47 354 18 64 62 49 36 15 8 8 38 42 13 339 308 23 66 71 73 80 80 82 90 97 101 101 93 86 81 76 73 69 63 60 55 49 46 46 45 43 42 45 49 49 46 45 45 45 44 44 44 43 42 40 38 35 30 27 30 36 39 41 45 50 54 57 59 60 61 62 62 63 63 64 64 62 66 75 78 82 100 123 136
40 67 86 69 54 63 73 88 95 77 51 39 40 49 45 27 18 45 74 78 71 74 85 87 90 94 95 98 97 90 85 83 79 71 65 60 56 53 51 49 47 49 50 48 48 50 48 43 42 46 48 46 45 45 43 40 40 39 35 31 28 31 36 42 46 48 48 52 57 59 60 62 62 61 61 60 60 59 53 53 59 57 54 60 66 75
117 110 99 91 99 93 80 81 93 87 76 68 59 52 49 43 38 52 72 76 75 82 88 90 94 96 95 96 94 92 90 88 84 78 72 69 63 55 52 50 49 52 55 55 53 52 50 46 45 49 53 52 50 49 46 42 42 40 35 31 30 30 32 37 44 47 48 52 58 60 62 63 63 62 61 60 61 61 54 50 51 51 53 56 53 48
107 101 89 95 119 107 74 67 74 76 78 80 75 66 61 57 52 53 66 74 78 87 96 101 104 103 100 98 97 98 100 99 95 89 81 75 73 68 61 56 53 53 57 59 60 59 60 59 55 54 57 58 58 56 53 49 46 43 38 34 32 32 35 39 44 48 49 52 57 60 61 61 61 61 60 60 64 65 60 53 50 54 57 56 55 53
100 96 86 83 90 93 94 93 85 77 75 78 79 77 75 74 67 58 65 77 78 79 87 94 99 103 105 105 106 111 118 119 111 104 98 92 85 76 69 65 62 59 58 59 61 65 69 75 75 69 66 66 64 61 58 53 49 47 44 40 36 37 43 48 49 53 57 59 59 60 61 63 65 65 62 60 62 65 63 56 50 51 55 53 56 62
99 102 99 98 99 103 111 112 101 85 75 72 78 90 98 97 87 73 69 73 72 69 68 64 59 59 66 78 86 95 102 101 92 86 82 84 85 82 83 85 79 72 68 63 60 59 60 74 88 85 80 77 70 67 64 57 52 51 49 44 39 41 53 61 58 53 53 57 61 66 66 66 72 81 79 73 70 69 70 66 58 56 61 60 59 65
94 106 111 112 106 101 105 108 102 93 83 81 92 103 110 111 103 94 87 80 72 72 72 66 59 53 50 49 52 58 68 72 74 77 76 74 77 81 91 96 90 90 97 93 80 68 61 64 71 72 73 78 75 72 75 72 62 55 53 49 43 39 44 61 71 67 59 52 50 58 66 67 69 80 91 93 88 81 77 73 67 65 69 70 67 69
91 106 109 106 100 94 95 96 96 98 101 104 109 112 113 112 106 100 98 95 90 85 82 79 76 68 59 52 47 44 43 38 36 43 57 70 75 78 89 100 103 109 120 118 110 100 88 77 71 69 69 74 78 75 76 80 79 72 64 57 51 45 43 44 54 69 74 66 58 60 65 67 70 74 81 94 103 98 89 81 74 70 72 75 76 74